Time,TemperatureF,DewpointF,PressureIn,WindDirection,WindDirectionDegrees,WindSpeedMPH,WindSpeedGustMPH,Humidity,HourlyPrecipIn,Conditions,Clouds,dailyrainin,SoftwareType,DateUTC
2013-01-05 00:00:00,21.1,16.2,30.16,WNW,293,1.0,-999.0,81,0.00,,,0.00,Wunderground v.1.15,2013-01-05 06:00:00,
2013-01-05 00:02:00,21.1,16.2,30.16,WNW,293,1.0,-999.0,81,0.00,,,0.00,Wunderground v.1.15,2013-01-05 06:02:00,
2013-01-05 00:05:00,21.1,16.2,30.16,WNW,293,1.0,-999.0,81,0.00,,,0.00,Wunderground v.1.15,2013-01-05 06:05:00,
2013-01-05 00:07:00,21.1,16.2,30.16,WNW,293,1.0,-999.0,81,0.00,,,0.00,Wunderground v.1.15,2013-01-05 06:07:00,
2013-01-05 00:10:00,21.1,16.2,30.16,WNW,293,1.0,-999.0,81,0.00,,,0.00,Wunderground v.1.15,2013-01-05 06:10:00,
2013-01-05 00:12:00,21.1,16.2,30.16,WNW,293,1.0,-999.0,81,0.00,,,0.00,Wunderground v.1.15,2013-01-05 06:12:00,
2013-01-05 00:15:00,21.1,16.2,30.16,WNW,293,1.0,-999.0,81,0.00,,,0.00,Wunderground v.1.15,2013-01-05 06:15:00,
2013-01-05 00:17:00,21.1,16.2,30.16,WNW,293,1.0,-999.0,81,0.00,,,0.00,Wunderground v.1.15,2013-01-05 06:17:00,
2013-01-05 00:20:00,21.1,16.2,30.16,WNW,293,1.0,-999.0,81,0.00,,,0.00,Wunderground v.1.15,2013-01-05 06:20:00,
2013-01-05 00:22:00,21.1,16.2,30.16,WNW,293,1.0,-999.0,81,0.00,,,0.00,Wunderground v.1.15,2013-01-05 06:22:00,
2013-01-05 00:25:00,20.9,16.0,30.16,NW,315,0.0,-999.0,81,0.00,,,0.00,Wunderground v.1.15,2013-01-05 06:25:00,
2013-01-05 00:27:00,20.9,16.0,30.16,NW,315,0.0,-999.0,81,0.00,,,0.00,Wunderground v.1.15,2013-01-05 06:27:00,
2013-01-05 00:30:00,20.9,16.0,30.16,NW,315,0.0,-999.0,81,0.00,,,0.00,Wunderground v.1.15,2013-01-05 06:30:00,
2013-01-05 00:32:00,20.9,16.0,30.16,NW,315,0.0,-999.0,81,0.00,,,0.00,Wunderground v.1.15,2013-01-05 06:32:00,
2013-01-05 00:35:00,20.8,15.9,30.16,NW,315,2.0,-999.0,81,0.00,,,0.00,Wunderground v.1.15,2013-01-05 06:35:00,
2013-01-05 00:37:00,20.8,15.9,30.16,NW,315,2.0,-999.0,81,0.00,,,0.00,Wunderground v.1.15,2013-01-05 06:37:00,
2013-01-05 00:40:00,20.8,15.9,30.16,NW,315,2.0,-999.0,81,0.00,,,0.00,Wunderground v.1.15,2013-01-05 06:40:00,
2013-01-05 00:42:00,20.8,15.9,30.16,NW,315,2.0,-999.0,81,0.00,,,0.00,Wunderground v.1.15,2013-01-05 06:42:00,
2013-01-05 00:45:00,20.7,15.8,30.17,NW,315,2.0,-999.0,81,0.00,,,0.00,Wunderground v.1.15,2013-01-05 06:45:00,
2013-01-05 00:47:00,20.7,15.8,30.17,NW,315,2.0,-999.0,81,0.00,,,0.00,Wunderground v.1.15,2013-01-05 06:47:00,
2013-01-05 00:50:00,20.7,15.8,30.17,NW,315,2.0,-999.0,81,0.00,,,0.00,Wunderground v.1.15,2013-01-05 06:50:00,
2013-01-05 00:52:00,20.7,15.8,30.17,NW,315,2.0,-999.0,81,0.00,,,0.00,Wunderground v.1.15,2013-01-05 06:52:00,
2013-01-05 00:55:00,20.2,15.3,30.17,NW,315,1.0,-999.0,81,0.00,,,0.00,Wunderground v.1.15,2013-01-05 06:55:00,
2013-01-05 00:57:00,20.2,15.3,30.17,NW,315,1.0,-999.0,81,0.00,,,0.00,Wunderground v.1.15,2013-01-05 06:57:00,
2013-01-05 01:00:00,20.2,15.3,30.17,NW,315,1.0,-999.0,81,0.00,,,0.00,Wunderground v.1.15,2013-01-05 07:00:00,
2013-01-05 01:02:00,20.2,15.3,30.17,NW,315,1.0,-999.0,81,0.00,,,0.00,Wunderground v.1.15,2013-01-05 07:02:00,
2013-01-05 01:05:00,20.0,15.4,30.17,NW,315,1.0,-999.0,82,0.00,,,0.00,Wunderground v.1.15,2013-01-05 07:05:00,
2013-01-05 01:07:00,20.0,15.4,30.17,NW,315,1.0,-999.0,82,0.00,,,0.00,Wunderground v.1.15,2013-01-05 07:07:00,
2013-01-05 01:10:00,20.0,15.4,30.17,NW,315,1.0,-999.0,82,0.00,,,0.00,Wunderground v.1.15,2013-01-05 07:10:00,
2013-01-05 01:12:00,20.0,15.4,30.17,NW,315,1.0,-999.0,82,0.00,,,0.00,Wunderground v.1.15,2013-01-05 07:12:00,
2013-01-05 01:15:00,19.8,15.2,30.17,NW,315,1.0,-999.0,82,0.00,,,0.00,Wunderground v.1.15,2013-01-05 07:15:00,
2013-01-05 01:17:00,19.8,15.2,30.17,NW,315,1.0,-999.0,82,0.00,,,0.00,Wunderground v.1.15,2013-01-05 07:17:00,
2013-01-05 01:20:00,19.8,15.2,30.17,NW,315,1.0,-999.0,82,0.00,,,0.00,Wunderground v.1.15,2013-01-05 07:20:00,
2013-01-05 01:22:00,19.8,15.2,30.17,NW,315,1.0,-999.0,82,0.00,,,0.00,Wunderground v.1.15,2013-01-05 07:22:00,
2013-01-05 01:25:00,19.6,15.3,30.18,NW,315,0.0,-999.0,83,0.00,,,0.00,Wunderground v.1.15,2013-01-05 07:25:00,
2013-01-05 01:27:00,19.6,15.3,30.18,NW,315,0.0,-999.0,83,0.00,,,0.00,Wunderground v.1.15,2013-01-05 07:27:00,
2013-01-05 01:30:00,19.6,15.3,30.18,NW,315,0.0,-999.0,83,0.00,,,0.00,Wunderground v.1.15,2013-01-05 07:30:00,
2013-01-05 01:32:00,19.6,15.3,30.18,NW,315,0.0,-999.0,83,0.00,,,0.00,Wunderground v.1.15,2013-01-05 07:32:00,
2013-01-05 01:35:00,19.6,15.3,30.18,NW,315,1.0,-999.0,83,0.00,,,0.00,Wunderground v.1.15,2013-01-05 07:35:00,
2013-01-05 01:37:00,19.6,15.3,30.18,NW,315,1.0,-999.0,83,0.00,,,0.00,Wunderground v.1.15,2013-01-05 07:37:00,
2013-01-05 01:40:00,19.6,15.3,30.18,NW,315,1.0,-999.0,83,0.00,,,0.00,Wunderground v.1.15,2013-01-05 07:40:00,
2013-01-05 01:42:00,19.6,15.3,30.18,NW,315,1.0,-999.0,83,0.00,,,0.00,Wunderground v.1.15,2013-01-05 07:42:00,
2013-01-05 01:45:00,19.3,15.0,30.18,NW,315,0.0,-999.0,83,0.00,,,0.00,Wunderground v.1.15,2013-01-05 07:45:00,
2013-01-05 01:47:00,19.3,15.0,30.18,NW,315,0.0,-999.0,83,0.00,,,0.00,Wunderground v.1.15,2013-01-05 07:47:00,
2013-01-05 01:50:00,19.3,15.0,30.18,NW,315,0.0,-999.0,83,0.00,,,0.00,Wunderground v.1.15,2013-01-05 07:50:00,
2013-01-05 01:52:00,19.3,15.0,30.18,NW,315,0.0,-999.0,83,0.00,,,0.00,Wunderground v.1.15,2013-01-05 07:52:00,
2013-01-05 01:55:00,18.8,14.5,30.18,N/A,-737280,0.0,-999.0,83,0.00,,,0.00,Wunderground v.1.15,2013-01-05 07:55:00,
2013-01-05 01:57:00,18.8,14.5,30.18,N/A,-737280,0.0,-999.0,83,0.00,,,0.00,Wunderground v.1.15,2013-01-05 07:57:00,
2013-01-05 02:00:00,18.8,14.5,30.18,N/A,-737280,0.0,-999.0,83,0.00,,,0.00,Wunderground v.1.15,2013-01-05 08:00:00,
2013-01-05 02:02:00,18.8,14.5,30.18,N/A,-737280,0.0,-999.0,83,0.00,,,0.00,Wunderground v.1.15,2013-01-05 08:02:00,
2013-01-05 02:05:00,17.4,12.8,30.19,N/A,-737280,0.0,-999.0,82,0.00,,,0.00,Wunderground v.1.15,2013-01-05 08:05:00,
2013-01-05 02:07:00,17.4,12.8,30.19,N/A,-737280,0.0,-999.0,82,0.00,,,0.00,Wunderground v.1.15,2013-01-05 08:07:00,
2013-01-05 02:10:00,17.4,12.8,30.19,N/A,-737280,0.0,-999.0,82,0.00,,,0.00,Wunderground v.1.15,2013-01-05 08:10:00,
2013-01-05 02:12:00,17.4,12.8,30.19,N/A,-737280,0.0,-999.0,82,0.00,,,0.00,Wunderground v.1.15,2013-01-05 08:12:00,
2013-01-05 02:15:00,16.8,12.5,30.19,N/A,-737280,0.0,-999.0,83,0.00,,,0.00,Wunderground v.1.15,2013-01-05 08:15:00,
2013-01-05 02:17:00,16.8,12.5,30.19,N/A,-737280,0.0,-999.0,83,0.00,,,0.00,Wunderground v.1.15,2013-01-05 08:17:00,
2013-01-05 02:20:00,16.8,12.5,30.19,N/A,-737280,0.0,-999.0,83,0.00,,,0.00,Wunderground v.1.15,2013-01-05 08:20:00,
2013-01-05 02:22:00,16.8,12.5,30.19,N/A,-737280,0.0,-999.0,83,0.00,,,0.00,Wunderground v.1.15,2013-01-05 08:22:00,
2013-01-05 02:25:00,16.4,12.4,30.19,N/A,-737280,0.0,-999.0,84,0.00,,,0.00,Wunderground v.1.15,2013-01-05 08:25:00,
2013-01-05 02:27:00,16.4,12.4,30.19,N/A,-737280,0.0,-999.0,84,0.00,,,0.00,Wunderground v.1.15,2013-01-05 08:27:00,
2013-01-05 02:30:00,16.4,12.4,30.19,N/A,-737280,0.0,-999.0,84,0.00,,,0.00,Wunderground v.1.15,2013-01-05 08:30:00,
2013-01-05 02:32:00,16.4,12.4,30.19,N/A,-737280,0.0,-999.0,84,0.00,,,0.00,Wunderground v.1.15,2013-01-05 08:32:00,
2013-01-05 02:35:00,16.2,12.2,30.19,N/A,-737280,0.0,-999.0,84,0.00,,,0.00,Wunderground v.1.15,2013-01-05 08:35:00,
2013-01-05 02:37:00,16.2,12.2,30.19,N/A,-737280,0.0,-999.0,84,0.00,,,0.00,Wunderground v.1.15,2013-01-05 08:37:00,
2013-01-05 02:40:00,16.2,12.2,30.19,N/A,-737280,0.0,-999.0,84,0.00,,,0.00,Wunderground v.1.15,2013-01-05 08:40:00,
2013-01-05 02:42:00,16.2,12.2,30.19,N/A,-737280,0.0,-999.0,84,0.00,,,0.00,Wunderground v.1.15,2013-01-05 08:42:00,
2013-01-05 02:45:00,15.7,11.7,30.19,N/A,-737280,0.0,-999.0,84,0.00,,,0.00,Wunderground v.1.15,2013-01-05 08:45:00,
2013-01-05 02:47:00,15.7,11.7,30.19,N/A,-737280,0.0,-999.0,84,0.00,,,0.00,Wunderground v.1.15,2013-01-05 08:47:00,
2013-01-05 02:50:00,15.7,11.7,30.19,N/A,-737280,0.0,-999.0,84,0.00,,,0.00,Wunderground v.1.15,2013-01-05 08:50:00,
2013-01-05 02:52:00,15.7,11.7,30.19,N/A,-737280,0.0,-999.0,84,0.00,,,0.00,Wunderground v.1.15,2013-01-05 08:52:00,
2013-01-05 02:55:00,15.5,11.8,30.20,N/A,-737280,0.0,-999.0,85,0.00,,,0.00,Wunderground v.1.15,2013-01-05 08:55:00,
2013-01-05 02:57:00,15.5,11.8,30.20,N/A,-737280,0.0,-999.0,85,0.00,,,0.00,Wunderground v.1.15,2013-01-05 08:57:00,
2013-01-05 03:00:00,15.5,11.8,30.20,N/A,-737280,0.0,-999.0,85,0.00,,,0.00,Wunderground v.1.15,2013-01-05 09:00:00,
2013-01-05 03:02:00,15.5,11.8,30.20,N/A,-737280,0.0,-999.0,85,0.00,,,0.00,Wunderground v.1.15,2013-01-05 09:02:00,
2013-01-05 03:05:00,15.3,11.9,30.20,N/A,-737280,0.0,-999.0,86,0.00,,,0.00,Wunderground v.1.15,2013-01-05 09:05:00,
2013-01-05 03:07:00,15.3,11.9,30.20,N/A,-737280,0.0,-999.0,86,0.00,,,0.00,Wunderground v.1.15,2013-01-05 09:07:00,
2013-01-05 03:10:00,15.3,11.9,30.20,N/A,-737280,0.0,-999.0,86,0.00,,,0.00,Wunderground v.1.15,2013-01-05 09:10:00,
2013-01-05 03:12:00,15.3,11.9,30.20,N/A,-737280,0.0,-999.0,86,0.00,,,0.00,Wunderground v.1.15,2013-01-05 09:12:00,
2013-01-05 03:15:00,15.3,11.9,30.19,N/A,-737280,0.0,-999.0,86,0.00,,,0.00,Wunderground v.1.15,2013-01-05 09:15:00,
2013-01-05 03:17:00,15.3,11.9,30.19,N/A,-737280,0.0,-999.0,86,0.00,,,0.00,Wunderground v.1.15,2013-01-05 09:17:00,
2013-01-05 03:20:00,15.3,11.9,30.19,N/A,-737280,0.0,-999.0,86,0.00,,,0.00,Wunderground v.1.15,2013-01-05 09:20:00,
2013-01-05 03:22:00,15.3,11.9,30.19,N/A,-737280,0.0,-999.0,86,0.00,,,0.00,Wunderground v.1.15,2013-01-05 09:22:00,
2013-01-05 03:25:00,14.0,10.3,30.18,N/A,-737280,0.0,-999.0,85,0.00,,,0.00,Wunderground v.1.15,2013-01-05 09:25:00,
2013-01-05 03:27:00,14.0,10.3,30.18,N/A,-737280,0.0,-999.0,85,0.00,,,0.00,Wunderground v.1.15,2013-01-05 09:27:00,
2013-01-05 03:30:00,14.0,10.3,30.18,N/A,-737280,0.0,-999.0,85,0.00,,,0.00,Wunderground v.1.15,2013-01-05 09:30:00,
2013-01-05 03:32:00,14.0,10.3,30.18,N/A,-737280,0.0,-999.0,85,0.00,,,0.00,Wunderground v.1.15,2013-01-05 09:32:00,
2013-01-05 03:35:00,12.9,9.2,30.17,N/A,-737280,0.0,-999.0,85,0.00,,,0.00,Wunderground v.1.15,2013-01-05 09:35:00,
2013-01-05 03:37:00,12.9,9.2,30.17,N/A,-737280,0.0,-999.0,85,0.00,,,0.00,Wunderground v.1.15,2013-01-05 09:37:00,
2013-01-05 03:40:00,12.9,9.2,30.17,N/A,-737280,0.0,-999.0,85,0.00,,,0.00,Wunderground v.1.15,2013-01-05 09:40:00,
2013-01-05 03:42:00,12.9,9.2,30.17,N/A,-737280,0.0,-999.0,85,0.00,,,0.00,Wunderground v.1.15,2013-01-05 09:42:00,
2013-01-05 03:45:00,13.2,10.1,30.17,N/A,-737280,0.0,-999.0,87,0.00,,,0.00,Wunderground v.1.15,2013-01-05 09:45:00,
2013-01-05 03:47:00,13.2,10.1,30.17,N/A,-737280,0.0,-999.0,87,0.00,,,0.00,Wunderground v.1.15,2013-01-05 09:47:00,
2013-01-05 03:50:00,13.2,10.1,30.17,N/A,-737280,0.0,-999.0,87,0.00,,,0.00,Wunderground v.1.15,2013-01-05 09:50:00,
2013-01-05 03:52:00,13.2,10.1,30.17,N/A,-737280,0.0,-999.0,87,0.00,,,0.00,Wunderground v.1.15,2013-01-05 09:52:00,
2013-01-05 03:55:00,12.7,9.3,30.17,N/A,-737280,0.0,-999.0,86,0.00,,,0.00,Wunderground v.1.15,2013-01-05 09:55:00,
2013-01-05 03:57:00,12.7,9.3,30.17,N/A,-737280,0.0,-999.0,86,0.00,,,0.00,Wunderground v.1.15,2013-01-05 09:57:00,
2013-01-05 04:00:00,12.7,9.3,30.17,N/A,-737280,0.0,-999.0,86,0.00,,,0.00,Wunderground v.1.15,2013-01-05 10:00:00,
2013-01-05 04:02:00,12.7,9.3,30.17,N/A,-737280,0.0,-999.0,86,0.00,,,0.00,Wunderground v.1.15,2013-01-05 10:02:00,
2013-01-05 04:05:00,12.5,9.4,30.17,N/A,-737280,0.0,-999.0,87,0.00,,,0.00,Wunderground v.1.15,2013-01-05 10:05:00,
2013-01-05 04:07:00,12.5,9.4,30.17,N/A,-737280,0.0,-999.0,87,0.00,,,0.00,Wunderground v.1.15,2013-01-05 10:07:00,
2013-01-05 04:12:00,12.5,9.4,30.17,N/A,-737280,0.0,-999.0,87,0.00,,,0.00,Wunderground v.1.15,2013-01-05 10:12:00,
2013-01-05 04:17:00,11.9,8.8,30.17,N/A,-737280,0.0,-999.0,87,0.00,,,0.00,Wunderground v.1.15,2013-01-05 10:17:00,
2013-01-05 04:22:00,11.9,8.8,30.17,N/A,-737280,0.0,-999.0,87,0.00,,,0.00,Wunderground v.1.15,2013-01-05 10:22:00,
2013-01-05 04:27:00,11.5,8.1,30.17,N/A,-737280,0.0,-999.0,86,0.00,,,0.00,Wunderground v.1.15,2013-01-05 10:27:00,
2013-01-05 04:32:00,11.5,8.1,30.17,N/A,-737280,0.0,-999.0,86,0.00,,,0.00,Wunderground v.1.15,2013-01-05 10:32:00,
2013-01-05 04:37:00,10.8,7.7,30.18,N/A,-737280,0.0,-999.0,87,0.00,,,0.00,Wunderground v.1.15,2013-01-05 10:37:00,
2013-01-05 04:42:00,10.8,7.7,30.18,N/A,-737280,0.0,-999.0,87,0.00,,,0.00,Wunderground v.1.15,2013-01-05 10:42:00,
2013-01-05 04:47:00,10.5,7.4,30.18,N/A,-737280,0.0,-999.0,87,0.00,,,0.00,Wunderground v.1.15,2013-01-05 10:47:00,
2013-01-05 04:52:00,10.5,7.4,30.18,N/A,-737280,0.0,-999.0,87,0.00,,,0.00,Wunderground v.1.15,2013-01-05 10:52:00,
2013-01-05 04:57:00,10.3,7.2,30.18,N/A,-737280,0.0,-999.0,87,0.00,,,0.00,Wunderground v.1.15,2013-01-05 10:57:00,
2013-01-05 05:02:00,10.3,7.2,30.18,N/A,-737280,0.0,-999.0,87,0.00,,,0.00,Wunderground v.1.15,2013-01-05 11:02:00,
2013-01-05 05:07:00,10.1,7.0,30.18,N/A,-737280,0.0,-999.0,87,0.00,,,0.00,Wunderground v.1.15,2013-01-05 11:07:00,
2013-01-05 05:12:00,10.1,7.0,30.18,N/A,-737280,0.0,-999.0,87,0.00,,,0.00,Wunderground v.1.15,2013-01-05 11:12:00,
2013-01-05 05:17:00,9.9,7.1,30.18,N/A,-737280,0.0,-999.0,88,0.00,,,0.00,Wunderground v.1.15,2013-01-05 11:17:00,
2013-01-05 05:22:00,9.9,7.1,30.18,N/A,-737280,0.0,-999.0,88,0.00,,,0.00,Wunderground v.1.15,2013-01-05 11:22:00,
2013-01-05 05:27:00,10.0,7.2,30.18,N/A,-737280,0.0,-999.0,88,0.00,,,0.00,Wunderground v.1.15,2013-01-05 11:27:00,
2013-01-05 05:32:00,10.0,7.2,30.18,N/A,-737280,0.0,-999.0,88,0.00,,,0.00,Wunderground v.1.15,2013-01-05 11:32:00,
2013-01-05 05:37:00,9.9,7.1,30.17,N/A,-737280,0.0,-999.0,88,0.00,,,0.00,Wunderground v.1.15,2013-01-05 11:37:00,
2013-01-05 05:42:00,9.9,7.1,30.17,N/A,-737280,0.0,-999.0,88,0.00,,,0.00,Wunderground v.1.15,2013-01-05 11:42:00,
2013-01-05 05:47:00,9.8,7.0,30.18,N/A,-737280,0.0,-999.0,88,0.00,,,0.00,Wunderground v.1.15,2013-01-05 11:47:00,
2013-01-05 05:52:00,9.8,7.0,30.18,N/A,-737280,0.0,-999.0,88,0.00,,,0.00,Wunderground v.1.15,2013-01-05 11:52:00,
2013-01-05 05:57:00,10.0,7.2,30.17,N/A,-737280,0.0,-999.0,88,0.00,,,0.00,Wunderground v.1.15,2013-01-05 11:57:00,
2013-01-05 06:02:00,10.0,7.2,30.17,N/A,-737280,0.0,-999.0,88,0.00,,,0.00,Wunderground v.1.15,2013-01-05 12:02:00,
2013-01-05 06:07:00,10.1,7.3,30.17,N/A,-737280,0.0,-999.0,88,0.00,,,0.00,Wunderground v.1.15,2013-01-05 12:07:00,
2013-01-05 06:12:00,10.1,7.3,30.17,N/A,-737280,0.0,-999.0,88,0.00,,,0.00,Wunderground v.1.15,2013-01-05 12:12:00,
2013-01-05 06:17:00,9.9,7.1,30.17,N/A,-737280,0.0,-999.0,88,0.00,,,0.00,Wunderground v.1.15,2013-01-05 12:17:00,
2013-01-05 06:22:00,9.9,7.1,30.17,N/A,-737280,0.0,-999.0,88,0.00,,,0.00,Wunderground v.1.15,2013-01-05 12:22:00,
2013-01-05 06:27:00,9.9,7.1,30.16,N/A,-737280,0.0,-999.0,88,0.00,,,0.00,Wunderground v.1.15,2013-01-05 12:27:00,
2013-01-05 06:32:00,9.9,7.1,30.16,N/A,-737280,0.0,-999.0,88,0.00,,,0.00,Wunderground v.1.15,2013-01-05 12:32:00,
2013-01-05 06:37:00,9.7,6.9,30.17,N/A,-737280,0.0,-999.0,88,0.00,,,0.00,Wunderground v.1.15,2013-01-05 12:37:00,
2013-01-05 06:42:00,9.7,6.9,30.17,N/A,-737280,0.0,-999.0,88,0.00,,,0.00,Wunderground v.1.15,2013-01-05 12:42:00,
2013-01-05 06:47:00,9.1,6.3,30.16,N/A,-737280,0.0,-999.0,88,0.00,,,0.00,Wunderground v.1.15,2013-01-05 12:47:00,
2013-01-05 06:52:00,9.1,6.3,30.16,N/A,-737280,0.0,-999.0,88,0.00,,,0.00,Wunderground v.1.15,2013-01-05 12:52:00,
2013-01-05 06:57:00,8.8,6.0,30.16,N/A,-737280,0.0,-999.0,88,0.00,,,0.00,Wunderground v.1.15,2013-01-05 12:57:00,
2013-01-05 07:02:00,8.8,6.0,30.16,N/A,-737280,0.0,-999.0,88,0.00,,,0.00,Wunderground v.1.15,2013-01-05 13:02:00,
2013-01-05 07:07:00,8.7,5.9,30.15,N/A,-737280,0.0,-999.0,88,0.00,,,0.00,Wunderground v.1.15,2013-01-05 13:07:00,
2013-01-05 07:12:00,8.7,5.9,30.15,N/A,-737280,0.0,-999.0,88,0.00,,,0.00,Wunderground v.1.15,2013-01-05 13:12:00,
2013-01-05 07:17:00,8.6,5.8,30.16,N/A,-737280,0.0,-999.0,88,0.00,,,0.00,Wunderground v.1.15,2013-01-05 13:17:00,
2013-01-05 07:22:00,8.6,5.8,30.16,N/A,-737280,0.0,-999.0,88,0.00,,,0.00,Wunderground v.1.15,2013-01-05 13:22:00,
2013-01-05 07:27:00,8.6,5.8,30.15,N/A,-737280,0.0,-999.0,88,0.00,,,0.00,Wunderground v.1.15,2013-01-05 13:27:00,
2013-01-05 07:32:00,8.6,5.8,30.15,N/A,-737280,0.0,-999.0,88,0.00,,,0.00,Wunderground v.1.15,2013-01-05 13:32:00,
2013-01-05 07:37:00,8.6,5.8,30.14,N/A,-737280,0.0,-999.0,88,0.00,,,0.00,Wunderground v.1.15,2013-01-05 13:37:00,
2013-01-05 07:42:00,8.6,5.8,30.14,N/A,-737280,0.0,-999.0,88,0.00,,,0.00,Wunderground v.1.15,2013-01-05 13:42:00,
2013-01-05 07:47:00,8.6,5.8,30.15,N/A,-737280,0.0,-999.0,88,0.00,,,0.00,Wunderground v.1.15,2013-01-05 13:47:00,
2013-01-05 07:52:00,8.6,5.8,30.15,N/A,-737280,0.0,-999.0,88,0.00,,,0.00,Wunderground v.1.15,2013-01-05 13:52:00,
2013-01-05 07:57:00,8.5,5.7,30.15,NW,315,0.0,-999.0,88,0.00,,,0.00,Wunderground v.1.15,2013-01-05 13:57:00,
2013-01-05 08:02:00,8.5,5.7,30.15,NW,315,0.0,-999.0,88,0.00,,,0.00,Wunderground v.1.15,2013-01-05 14:02:00,
2013-01-05 08:07:00,8.6,5.8,30.14,N/A,-737280,0.0,-999.0,88,0.00,,,0.00,Wunderground v.1.15,2013-01-05 14:07:00,
2013-01-05 08:12:00,8.6,5.8,30.14,N/A,-737280,0.0,-999.0,88,0.00,,,0.00,Wunderground v.1.15,2013-01-05 14:12:00,
2013-01-05 08:17:00,8.9,6.1,30.14,N/A,-737280,0.0,-999.0,88,0.00,,,0.00,Wunderground v.1.15,2013-01-05 14:17:00,
2013-01-05 08:22:00,8.9,6.1,30.14,N/A,-737280,0.0,-999.0,88,0.00,,,0.00,Wunderground v.1.15,2013-01-05 14:22:00,
2013-01-05 08:27:00,9.8,7.2,30.14,N/A,-737280,0.0,-999.0,89,0.00,,,0.00,Wunderground v.1.15,2013-01-05 14:27:00,
2013-01-05 08:32:00,9.8,7.2,30.14,N/A,-737280,0.0,-999.0,89,0.00,,,0.00,Wunderground v.1.15,2013-01-05 14:32:00,
2013-01-05 08:37:00,10.5,7.9,30.13,N/A,-737280,0.0,-999.0,89,0.00,,,0.00,Wunderground v.1.15,2013-01-05 14:37:00,
2013-01-05 08:42:00,10.5,7.9,30.13,N/A,-737280,0.0,-999.0,89,0.00,,,0.00,Wunderground v.1.15,2013-01-05 14:42:00,
2013-01-05 08:47:00,11.0,8.4,30.13,NW,315,0.0,-999.0,89,0.00,,,0.00,Wunderground v.1.15,2013-01-05 14:47:00,
2013-01-05 08:52:00,11.0,8.4,30.13,NW,315,0.0,-999.0,89,0.00,,,0.00,Wunderground v.1.15,2013-01-05 14:52:00,
2013-01-05 08:57:00,11.8,9.2,30.13,NW,315,0.0,-999.0,89,0.00,,,0.00,Wunderground v.1.15,2013-01-05 14:57:00,
2013-01-05 09:02:00,11.8,9.2,30.13,NW,315,0.0,-999.0,89,0.00,,,0.00,Wunderground v.1.15,2013-01-05 15:02:00,
2013-01-05 09:07:00,12.8,10.2,30.12,N/A,-737280,0.0,-999.0,89,0.00,,,0.00,Wunderground v.1.15,2013-01-05 15:07:00,
2013-01-05 09:12:00,12.8,10.2,30.12,N/A,-737280,0.0,-999.0,89,0.00,,,0.00,Wunderground v.1.15,2013-01-05 15:12:00,
2013-01-05 09:17:00,15.0,12.6,30.12,N/A,-737280,0.0,-999.0,90,0.00,,,0.00,Wunderground v.1.15,2013-01-05 15:17:00,
2013-01-05 09:22:00,15.0,12.6,30.12,N/A,-737280,0.0,-999.0,90,0.00,,,0.00,Wunderground v.1.15,2013-01-05 15:22:00,
2013-01-05 09:27:00,18.6,16.7,30.12,N/A,-737280,0.0,-999.0,92,0.00,,,0.00,Wunderground v.1.15,2013-01-05 15:27:00,
2013-01-05 09:32:00,18.6,16.7,30.12,N/A,-737280,0.0,-999.0,92,0.00,,,0.00,Wunderground v.1.15,2013-01-05 15:32:00,
2013-01-05 09:37:00,22.9,20.7,30.12,West,270,1.0,-999.0,91,0.00,,,0.00,Wunderground v.1.15,2013-01-05 15:37:00,
2013-01-05 09:42:00,22.9,20.7,30.12,West,270,1.0,-999.0,91,0.00,,,0.00,Wunderground v.1.15,2013-01-05 15:42:00,
2013-01-05 09:47:00,24.8,22.3,30.12,WSW,248,2.0,-999.0,90,0.00,,,0.00,Wunderground v.1.15,2013-01-05 15:47:00,
2013-01-05 09:52:00,24.8,22.3,30.12,WSW,248,2.0,-999.0,90,0.00,,,0.00,Wunderground v.1.15,2013-01-05 15:52:00,
2013-01-05 09:57:00,25.3,22.2,30.11,West,270,3.0,-999.0,88,0.00,,,0.00,Wunderground v.1.15,2013-01-05 15:57:00,
2013-01-05 10:02:00,25.3,22.2,30.11,West,270,3.0,-999.0,88,0.00,,,0.00,Wunderground v.1.15,2013-01-05 16:02:00,
2013-01-05 10:07:00,25.3,22.2,30.11,WSW,248,2.0,-999.0,88,0.00,,,0.00,Wunderground v.1.15,2013-01-05 16:07:00,
2013-01-05 10:12:00,25.3,22.2,30.11,WSW,248,2.0,-999.0,88,0.00,,,0.00,Wunderground v.1.15,2013-01-05 16:12:00,
2013-01-05 10:17:00,25.0,21.7,30.10,WSW,248,3.0,-999.0,87,0.00,,,0.00,Wunderground v.1.15,2013-01-05 16:17:00,
2013-01-05 10:22:00,25.0,21.7,30.10,WSW,248,3.0,-999.0,87,0.00,,,0.00,Wunderground v.1.15,2013-01-05 16:22:00,
2013-01-05 10:27:00,25.2,21.9,30.10,West,270,1.0,-999.0,87,0.00,,,0.00,Wunderground v.1.15,2013-01-05 16:27:00,
2013-01-05 10:32:00,25.2,21.9,30.10,West,270,1.0,-999.0,87,0.00,,,0.00,Wunderground v.1.15,2013-01-05 16:32:00,
2013-01-05 10:37:00,25.4,22.1,30.10,West,270,2.0,-999.0,87,0.00,,,0.00,Wunderground v.1.15,2013-01-05 16:37:00,
2013-01-05 10:42:00,25.4,22.1,30.10,West,270,2.0,-999.0,87,0.00,,,0.00,Wunderground v.1.15,2013-01-05 16:42:00,
2013-01-05 10:47:00,26.1,22.8,30.08,West,270,1.0,-999.0,87,0.00,,,0.00,Wunderground v.1.15,2013-01-05 16:47:00,
2013-01-05 10:52:00,26.1,22.8,30.08,West,270,1.0,-999.0,87,0.00,,,0.00,Wunderground v.1.15,2013-01-05 16:52:00,
2013-01-05 10:57:00,27.2,23.8,30.07,West,270,1.0,-999.0,87,0.00,,,0.00,Wunderground v.1.15,2013-01-05 16:57:00,
2013-01-05 11:02:00,27.2,23.8,30.07,West,270,1.0,-999.0,87,0.00,,,0.00,Wunderground v.1.15,2013-01-05 17:02:00,
2013-01-05 11:07:00,28.6,24.9,30.06,WSW,248,3.0,-999.0,86,0.00,,,0.00,Wunderground v.1.15,2013-01-05 17:07:00,
2013-01-05 11:12:00,28.6,24.9,30.06,WSW,248,3.0,-999.0,86,0.00,,,0.00,Wunderground v.1.15,2013-01-05 17:12:00,
2013-01-05 11:17:00,29.3,25.4,30.06,West,270,3.0,-999.0,85,0.00,,,0.00,Wunderground v.1.15,2013-01-05 17:17:00,
2013-01-05 11:22:00,29.3,25.4,30.06,West,270,3.0,-999.0,85,0.00,,,0.00,Wunderground v.1.15,2013-01-05 17:22:00,
2013-01-05 11:27:00,30.5,26.2,30.05,WSW,248,5.0,-999.0,84,0.00,,,0.00,Wunderground v.1.15,2013-01-05 17:27:00,
2013-01-05 11:32:00,30.5,26.2,30.05,WSW,248,5.0,-999.0,84,0.00,,,0.00,Wunderground v.1.15,2013-01-05 17:32:00,
2013-01-05 11:37:00,30.8,26.0,30.05,West,270,4.0,-999.0,82,0.00,,,0.00,Wunderground v.1.15,2013-01-05 17:37:00,
2013-01-05 11:42:00,30.8,26.0,30.05,West,270,4.0,-999.0,82,0.00,,,0.00,Wunderground v.1.15,2013-01-05 17:42:00,
2013-01-05 11:47:00,30.6,25.8,30.05,West,270,5.0,-999.0,82,0.00,,,0.00,Wunderground v.1.15,2013-01-05 17:47:00,
2013-01-05 11:52:00,30.6,25.8,30.05,West,270,5.0,-999.0,82,0.00,,,0.00,Wunderground v.1.15,2013-01-05 17:52:00,
2013-01-05 11:57:00,30.5,25.1,30.04,West,270,7.0,-999.0,80,0.00,,,0.00,Wunderground v.1.15,2013-01-05 17:57:00,
2013-01-05 12:02:00,30.5,25.1,30.04,West,270,7.0,-999.0,80,0.00,,,0.00,Wunderground v.1.15,2013-01-05 18:02:00,
2013-01-05 12:07:00,30.8,25.1,30.03,WSW,248,7.0,-999.0,79,0.00,,,0.00,Wunderground v.1.15,2013-01-05 18:07:00,
2013-01-05 12:12:00,30.8,25.1,30.03,WSW,248,7.0,-999.0,79,0.00,,,0.00,Wunderground v.1.15,2013-01-05 18:12:00,
2013-01-05 12:17:00,30.4,24.1,30.03,WSW,248,8.0,-999.0,77,0.00,,,0.00,Wunderground v.1.15,2013-01-05 18:17:00,
2013-01-05 12:22:00,30.4,24.1,30.03,WSW,248,8.0,-999.0,77,0.00,,,0.00,Wunderground v.1.15,2013-01-05 18:22:00,
2013-01-05 12:27:00,30.1,23.4,30.01,West,270,8.0,-999.0,76,0.00,,,0.00,Wunderground v.1.15,2013-01-05 18:27:00,
2013-01-05 12:32:00,30.1,23.4,30.01,West,270,8.0,-999.0,76,0.00,,,0.00,Wunderground v.1.15,2013-01-05 18:32:00,
2013-01-05 12:37:00,30.0,23.4,30.01,West,270,7.0,-999.0,76,0.00,,,0.00,Wunderground v.1.15,2013-01-05 18:37:00,
2013-01-05 12:42:00,30.0,23.4,30.01,West,270,7.0,-999.0,76,0.00,,,0.00,Wunderground v.1.15,2013-01-05 18:42:00,
2013-01-05 12:47:00,29.9,22.9,30.00,West,270,5.0,-999.0,75,0.00,,,0.00,Wunderground v.1.15,2013-01-05 18:47:00,
2013-01-05 12:52:00,29.9,22.9,30.00,West,270,5.0,-999.0,75,0.00,,,0.00,Wunderground v.1.15,2013-01-05 18:52:00,
2013-01-05 12:57:00,29.6,22.6,29.99,West,270,6.0,-999.0,75,0.00,,,0.00,Wunderground v.1.15,2013-01-05 18:57:00,
2013-01-05 13:02:00,29.6,22.6,29.99,West,270,6.0,-999.0,75,0.00,,,0.00,Wunderground v.1.15,2013-01-05 19:02:00,
2013-01-05 13:07:00,29.8,22.5,29.98,SW,225,4.0,-999.0,74,0.00,,,0.00,Wunderground v.1.15,2013-01-05 19:07:00,
2013-01-05 13:12:00,29.8,22.5,29.98,SW,225,4.0,-999.0,74,0.00,,,0.00,Wunderground v.1.15,2013-01-05 19:12:00,
2013-01-05 13:17:00,29.4,22.1,29.98,West,270,5.0,-999.0,74,0.00,,,0.00,Wunderground v.1.15,2013-01-05 19:17:00,
2013-01-05 13:22:00,29.4,22.1,29.98,West,270,5.0,-999.0,74,0.00,,,0.00,Wunderground v.1.15,2013-01-05 19:22:00,
2013-01-05 13:27:00,29.2,22.3,29.97,SW,225,4.0,-999.0,75,0.00,,,0.00,Wunderground v.1.15,2013-01-05 19:27:00,
2013-01-05 13:32:00,29.2,22.3,29.97,SW,225,4.0,-999.0,75,0.00,,,0.00,Wunderground v.1.15,2013-01-05 19:32:00,
2013-01-05 13:37:00,29.6,22.3,29.96,WSW,248,4.0,-999.0,74,0.00,,,0.00,Wunderground v.1.15,2013-01-05 19:37:00,
2013-01-05 13:42:00,29.6,22.3,29.96,WSW,248,4.0,-999.0,74,0.00,,,0.00,Wunderground v.1.15,2013-01-05 19:42:00,
2013-01-05 13:47:00,29.5,22.2,29.96,West,270,4.0,-999.0,74,0.00,,,0.00,Wunderground v.1.15,2013-01-05 19:47:00,
2013-01-05 13:52:00,29.5,22.2,29.96,West,270,4.0,-999.0,74,0.00,,,0.00,Wunderground v.1.15,2013-01-05 19:52:00,
2013-01-05 13:57:00,30.0,22.7,29.94,West,270,3.0,-999.0,74,0.00,,,0.00,Wunderground v.1.15,2013-01-05 19:57:00,
2013-01-05 14:02:00,30.0,22.7,29.94,West,270,3.0,-999.0,74,0.00,,,0.00,Wunderground v.1.15,2013-01-05 20:02:00,
2013-01-05 14:07:00,30.0,22.7,29.94,WSW,248,4.0,-999.0,74,0.00,,,0.00,Wunderground v.1.15,2013-01-05 20:07:00,
2013-01-05 14:12:00,30.0,22.7,29.94,WSW,248,4.0,-999.0,74,0.00,,,0.00,Wunderground v.1.15,2013-01-05 20:12:00,
2013-01-05 14:17:00,29.4,22.5,29.94,WSW,248,4.0,-999.0,75,0.00,,,0.00,Wunderground v.1.15,2013-01-05 20:17:00,
2013-01-05 14:22:00,29.4,22.5,29.94,WSW,248,4.0,-999.0,75,0.00,,,0.00,Wunderground v.1.15,2013-01-05 20:22:00,
2013-01-05 14:27:00,29.5,22.6,29.94,West,270,3.0,-999.0,75,0.00,,,0.00,Wunderground v.1.15,2013-01-05 20:27:00,
2013-01-05 14:32:00,29.5,22.6,29.94,West,270,3.0,-999.0,75,0.00,,,0.00,Wunderground v.1.15,2013-01-05 20:32:00,
2013-01-05 14:37:00,29.4,22.8,29.93,West,270,4.0,-999.0,76,0.00,,,0.00,Wunderground v.1.15,2013-01-05 20:37:00,
2013-01-05 14:42:00,29.4,22.8,29.93,West,270,4.0,-999.0,76,0.00,,,0.00,Wunderground v.1.15,2013-01-05 20:42:00,
2013-01-05 14:47:00,29.4,22.8,29.93,West,270,3.0,-999.0,76,0.00,,,0.00,Wunderground v.1.15,2013-01-05 20:47:00,
2013-01-05 14:52:00,29.4,22.8,29.93,West,270,3.0,-999.0,76,0.00,,,0.00,Wunderground v.1.15,2013-01-05 20:52:00,
2013-01-05 14:57:00,29.9,23.3,29.93,West,270,3.0,-999.0,76,0.00,,,0.00,Wunderground v.1.15,2013-01-05 20:57:00,
2013-01-05 15:02:00,29.9,23.3,29.93,West,270,3.0,-999.0,76,0.00,,,0.00,Wunderground v.1.15,2013-01-05 21:02:00,
2013-01-05 15:07:00,29.9,23.3,29.93,West,270,4.0,-999.0,76,0.00,,,0.00,Wunderground v.1.15,2013-01-05 21:07:00,
2013-01-05 15:12:00,29.9,23.3,29.93,West,270,4.0,-999.0,76,0.00,,,0.00,Wunderground v.1.15,2013-01-05 21:12:00,
2013-01-05 15:17:00,30.2,23.5,29.92,SW,225,3.0,-999.0,76,0.00,,,0.00,Wunderground v.1.15,2013-01-05 21:17:00,
2013-01-05 15:22:00,30.2,23.5,29.92,SW,225,3.0,-999.0,76,0.00,,,0.00,Wunderground v.1.15,2013-01-05 21:22:00,
2013-01-05 15:27:00,30.4,23.7,29.92,West,270,2.0,-999.0,76,0.00,,,0.00,Wunderground v.1.15,2013-01-05 21:27:00,
2013-01-05 15:32:00,30.4,23.7,29.92,West,270,2.0,-999.0,76,0.00,,,0.00,Wunderground v.1.15,2013-01-05 21:32:00,
2013-01-05 15:37:00,30.1,23.4,29.92,WSW,248,4.0,-999.0,76,0.00,,,0.00,Wunderground v.1.15,2013-01-05 21:37:00,
2013-01-05 15:42:00,30.1,23.4,29.92,WSW,248,4.0,-999.0,76,0.00,,,0.00,Wunderground v.1.15,2013-01-05 21:42:00,
2013-01-05 15:47:00,29.7,23.4,29.92,SW,225,4.0,-999.0,77,0.00,,,0.00,Wunderground v.1.15,2013-01-05 21:47:00,
2013-01-05 15:52:00,29.7,23.4,29.92,SW,225,4.0,-999.0,77,0.00,,,0.00,Wunderground v.1.15,2013-01-05 21:52:00,
2013-01-05 15:57:00,29.4,23.4,29.92,WSW,248,3.0,-999.0,78,0.00,,,0.00,Wunderground v.1.15,2013-01-05 21:57:00,
2013-01-05 16:02:00,29.4,23.4,29.92,WSW,248,3.0,-999.0,78,0.00,,,0.00,Wunderground v.1.15,2013-01-05 22:02:00,
2013-01-05 16:07:00,29.2,23.5,29.92,WSW,248,4.0,-999.0,79,0.00,,,0.00,Wunderground v.1.15,2013-01-05 22:07:00,
2013-01-05 16:12:00,29.2,23.5,29.92,WSW,248,4.0,-999.0,79,0.00,,,0.00,Wunderground v.1.15,2013-01-05 22:12:00,
2013-01-05 16:17:00,28.8,23.1,29.91,WSW,248,3.0,-999.0,79,0.00,,,0.00,Wunderground v.1.15,2013-01-05 22:17:00,
2013-01-05 16:22:00,28.8,23.1,29.91,WSW,248,3.0,-999.0,79,0.00,,,0.00,Wunderground v.1.15,2013-01-05 22:22:00,
2013-01-05 16:27:00,28.4,22.7,29.91,WSW,248,1.0,-999.0,79,0.00,,,0.00,Wunderground v.1.15,2013-01-05 22:27:00,
2013-01-05 16:32:00,28.4,22.7,29.91,WSW,248,1.0,-999.0,79,0.00,,,0.00,Wunderground v.1.15,2013-01-05 22:32:00,
2013-01-05 16:37:00,28.0,22.6,29.90,WSW,248,1.0,-999.0,80,0.00,,,0.00,Wunderground v.1.15,2013-01-05 22:37:00,
2013-01-05 16:42:00,28.0,22.6,29.90,WSW,248,1.0,-999.0,80,0.00,,,0.00,Wunderground v.1.15,2013-01-05 22:42:00,
2013-01-05 16:47:00,27.6,22.2,29.90,WSW,248,1.0,-999.0,80,0.00,,,0.00,Wunderground v.1.15,2013-01-05 22:47:00,
2013-01-05 16:52:00,27.6,22.2,29.90,WSW,248,1.0,-999.0,80,0.00,,,0.00,Wunderground v.1.15,2013-01-05 22:52:00,
2013-01-05 16:57:00,27.4,22.0,29.90,WSW,248,0.0,-999.0,80,0.00,,,0.00,Wunderground v.1.15,2013-01-05 22:57:00,
2013-01-05 17:02:00,27.4,22.0,29.90,WSW,248,0.0,-999.0,80,0.00,,,0.00,Wunderground v.1.15,2013-01-05 23:02:00,
2013-01-05 17:07:00,27.2,22.1,29.90,WSW,248,1.0,-999.0,81,0.00,,,0.00,Wunderground v.1.15,2013-01-05 23:07:00,
2013-01-05 17:12:00,27.2,22.1,29.90,WSW,248,1.0,-999.0,81,0.00,,,0.00,Wunderground v.1.15,2013-01-05 23:12:00,
2013-01-05 17:17:00,27.2,22.1,29.89,WSW,248,2.0,-999.0,81,0.00,,,0.00,Wunderground v.1.15,2013-01-05 23:17:00,
2013-01-05 17:22:00,27.2,22.1,29.89,WSW,248,2.0,-999.0,81,0.00,,,0.00,Wunderground v.1.15,2013-01-05 23:22:00,
2013-01-05 17:27:00,27.1,22.3,29.90,WSW,248,2.0,-999.0,82,0.00,,,0.00,Wunderground v.1.15,2013-01-05 23:27:00,
2013-01-05 17:32:00,27.1,22.3,29.90,WSW,248,2.0,-999.0,82,0.00,,,0.00,Wunderground v.1.15,2013-01-05 23:32:00,
2013-01-05 17:37:00,26.9,22.1,29.90,West,270,2.0,-999.0,82,0.00,,,0.00,Wunderground v.1.15,2013-01-05 23:37:00,
2013-01-05 17:42:00,26.9,22.1,29.90,West,270,2.0,-999.0,82,0.00,,,0.00,Wunderground v.1.15,2013-01-05 23:42:00,
2013-01-05 17:47:00,27.0,22.2,29.90,West,270,2.0,-999.0,82,0.00,,,0.00,Wunderground v.1.15,2013-01-05 23:47:00,
2013-01-05 17:52:00,27.0,22.2,29.90,West,270,2.0,-999.0,82,0.00,,,0.00,Wunderground v.1.15,2013-01-05 23:52:00,
2013-01-05 17:57:00,27.3,22.5,29.90,West,270,3.0,-999.0,82,0.00,,,0.00,Wunderground v.1.15,2013-01-05 23:57:00,
2013-01-05 18:02:00,27.3,22.5,29.90,West,270,3.0,-999.0,82,0.00,,,0.00,Wunderground v.1.15,2013-01-06 00:02:00,
2013-01-05 18:07:00,27.4,22.9,29.89,West,270,4.0,-999.0,83,0.00,,,0.00,Wunderground v.1.15,2013-01-06 00:07:00,
2013-01-05 18:12:00,27.4,22.9,29.89,West,270,4.0,-999.0,83,0.00,,,0.00,Wunderground v.1.15,2013-01-06 00:12:00,
2013-01-05 18:17:00,27.5,23.3,29.89,West,270,4.0,-999.0,84,0.00,,,0.00,Wunderground v.1.15,2013-01-06 00:17:00,
2013-01-05 18:22:00,27.5,23.3,29.89,West,270,4.0,-999.0,84,0.00,,,0.00,Wunderground v.1.15,2013-01-06 00:22:00,
2013-01-05 18:27:00,27.7,23.5,29.90,WNW,293,3.0,-999.0,84,0.00,,,0.00,Wunderground v.1.15,2013-01-06 00:27:00,
2013-01-05 18:32:00,27.7,23.5,29.90,WNW,293,3.0,-999.0,84,0.00,,,0.00,Wunderground v.1.15,2013-01-06 00:32:00,
2013-01-05 18:37:00,27.6,23.4,29.89,WNW,293,3.0,-999.0,84,0.00,,,0.00,Wunderground v.1.15,2013-01-06 00:37:00,
2013-01-05 18:42:00,27.6,23.4,29.89,WNW,293,3.0,-999.0,84,0.00,,,0.00,Wunderground v.1.15,2013-01-06 00:42:00,
2013-01-05 18:47:00,27.5,23.3,29.89,West,270,3.0,-999.0,84,0.00,,,0.00,Wunderground v.1.15,2013-01-06 00:47:00,
2013-01-05 18:52:00,27.5,23.3,29.89,West,270,3.0,-999.0,84,0.00,,,0.00,Wunderground v.1.15,2013-01-06 00:52:00,
2013-01-05 18:57:00,27.7,23.8,29.89,West,270,3.0,-999.0,85,0.00,,,0.00,Wunderground v.1.15,2013-01-06 00:57:00,
2013-01-05 19:02:00,27.7,23.8,29.89,West,270,3.0,-999.0,85,0.00,,,0.00,Wunderground v.1.15,2013-01-06 01:02:00,
2013-01-05 19:07:00,27.7,23.8,29.88,West,270,3.0,-999.0,85,0.00,,,0.00,Wunderground v.1.15,2013-01-06 01:07:00,
2013-01-05 19:12:00,27.7,23.8,29.88,West,270,3.0,-999.0,85,0.00,,,0.00,Wunderground v.1.15,2013-01-06 01:12:00,
2013-01-05 19:17:00,27.9,24.0,29.88,West,270,4.0,-999.0,85,0.00,,,0.00,Wunderground v.1.15,2013-01-06 01:17:00,
2013-01-05 19:22:00,27.9,24.0,29.88,West,270,4.0,-999.0,85,0.00,,,0.00,Wunderground v.1.15,2013-01-06 01:22:00,
2013-01-05 19:27:00,27.9,24.3,29.88,West,270,4.0,-999.0,86,0.00,,,0.00,Wunderground v.1.15,2013-01-06 01:27:00,
2013-01-05 19:32:00,27.9,24.3,29.88,West,270,4.0,-999.0,86,0.00,,,0.00,Wunderground v.1.15,2013-01-06 01:32:00,
2013-01-05 19:37:00,28.2,24.6,29.88,West,270,4.0,-999.0,86,0.00,,,0.00,Wunderground v.1.15,2013-01-06 01:37:00,
2013-01-05 19:42:00,28.2,24.6,29.88,West,270,4.0,-999.0,86,0.00,,,0.00,Wunderground v.1.15,2013-01-06 01:42:00,
2013-01-05 19:47:00,28.3,24.6,29.88,West,270,3.0,-999.0,86,0.00,,,0.00,Wunderground v.1.15,2013-01-06 01:47:00,
2013-01-05 19:52:00,28.3,24.6,29.88,West,270,3.0,-999.0,86,0.00,,,0.00,Wunderground v.1.15,2013-01-06 01:52:00,
2013-01-05 19:57:00,28.5,24.8,29.88,West,270,4.0,-999.0,86,0.00,,,0.00,Wunderground v.1.15,2013-01-06 01:57:00,
2013-01-05 20:02:00,28.5,24.8,29.88,West,270,4.0,-999.0,86,0.00,,,0.00,Wunderground v.1.15,2013-01-06 02:02:00,
2013-01-05 20:07:00,28.5,24.8,29.87,West,270,4.0,-999.0,86,0.00,,,0.00,Wunderground v.1.15,2013-01-06 02:07:00,
2013-01-05 20:12:00,28.5,24.8,29.87,West,270,4.0,-999.0,86,0.00,,,0.00,Wunderground v.1.15,2013-01-06 02:12:00,
2013-01-05 20:17:00,28.1,24.5,29.87,West,270,4.0,-999.0,86,0.00,,,0.00,Wunderground v.1.15,2013-01-06 02:17:00,
2013-01-05 20:22:00,28.1,24.5,29.87,West,270,4.0,-999.0,86,0.00,,,0.00,Wunderground v.1.15,2013-01-06 02:22:00,
2013-01-05 20:27:00,28.3,24.6,29.87,WNW,293,5.0,-999.0,86,0.00,,,0.00,Wunderground v.1.15,2013-01-06 02:27:00,
2013-01-05 20:32:00,28.3,24.6,29.87,WNW,293,5.0,-999.0,86,0.00,,,0.00,Wunderground v.1.15,2013-01-06 02:32:00,
2013-01-05 20:37:00,27.9,24.3,29.87,WNW,293,3.0,-999.0,86,0.00,,,0.00,Wunderground v.1.15,2013-01-06 02:37:00,
2013-01-05 20:42:00,27.9,24.3,29.87,WNW,293,3.0,-999.0,86,0.00,,,0.00,Wunderground v.1.15,2013-01-06 02:42:00,
2013-01-05 20:47:00,27.8,24.2,29.87,NW,315,4.0,-999.0,86,0.00,,,0.00,Wunderground v.1.15,2013-01-06 02:47:00,
2013-01-05 20:52:00,27.8,24.2,29.87,NW,315,4.0,-999.0,86,0.00,,,0.00,Wunderground v.1.15,2013-01-06 02:52:00,
2013-01-05 20:57:00,27.5,23.9,29.87,WNW,293,4.0,-999.0,86,0.00,,,0.00,Wunderground v.1.15,2013-01-06 02:57:00,
2013-01-05 21:02:00,27.5,23.9,29.87,WNW,293,4.0,-999.0,86,0.00,,,0.00,Wunderground v.1.15,2013-01-06 03:02:00,
2013-01-05 21:07:00,27.4,23.8,29.87,NW,315,4.0,-999.0,86,0.00,,,0.00,Wunderground v.1.15,2013-01-06 03:07:00,
2013-01-05 21:12:00,27.4,23.8,29.87,NW,315,4.0,-999.0,86,0.00,,,0.00,Wunderground v.1.15,2013-01-06 03:12:00,
2013-01-05 21:17:00,27.1,23.5,29.86,NW,315,3.0,-999.0,86,0.00,,,0.00,Wunderground v.1.15,2013-01-06 03:17:00,
2013-01-05 21:22:00,27.1,23.5,29.86,NW,315,3.0,-999.0,86,0.00,,,0.00,Wunderground v.1.15,2013-01-06 03:22:00,
2013-01-05 21:27:00,26.9,23.5,29.86,NW,315,3.0,-999.0,87,0.00,,,0.00,Wunderground v.1.15,2013-01-06 03:27:00,
2013-01-05 21:32:00,26.9,23.5,29.86,NW,315,3.0,-999.0,87,0.00,,,0.00,Wunderground v.1.15,2013-01-06 03:32:00,
2013-01-05 21:37:00,26.8,23.4,29.86,NW,315,4.0,-999.0,87,0.00,,,0.00,Wunderground v.1.15,2013-01-06 03:37:00,
2013-01-05 21:42:00,26.8,23.4,29.86,NW,315,4.0,-999.0,87,0.00,,,0.00,Wunderground v.1.15,2013-01-06 03:42:00,
2013-01-05 21:47:00,26.6,23.3,29.86,NW,315,3.0,-999.0,87,0.00,,,0.00,Wunderground v.1.15,2013-01-06 03:47:00,
2013-01-05 21:52:00,26.6,23.3,29.86,NW,315,3.0,-999.0,87,0.00,,,0.00,Wunderground v.1.15,2013-01-06 03:52:00,
2013-01-05 21:57:00,26.6,23.3,29.85,NW,315,4.0,-999.0,87,0.00,,,0.00,Wunderground v.1.15,2013-01-06 03:57:00,
2013-01-05 22:02:00,26.6,23.3,29.85,NW,315,4.0,-999.0,87,0.00,,,0.00,Wunderground v.1.15,2013-01-06 04:02:00,
2013-01-05 22:07:00,26.6,23.3,29.86,NW,315,3.0,-999.0,87,0.00,,,0.00,Wunderground v.1.15,2013-01-06 04:07:00,
2013-01-05 22:12:00,26.6,23.3,29.86,NW,315,3.0,-999.0,87,0.00,,,0.00,Wunderground v.1.15,2013-01-06 04:12:00,
2013-01-05 22:17:00,26.8,23.4,29.85,NW,315,3.0,-999.0,87,0.00,,,0.00,Wunderground v.1.15,2013-01-06 04:17:00,
2013-01-05 22:22:00,26.8,23.4,29.85,NW,315,3.0,-999.0,87,0.00,,,0.00,Wunderground v.1.15,2013-01-06 04:22:00,
2013-01-05 22:27:00,26.9,23.5,29.85,NW,315,3.0,-999.0,87,0.00,,,0.00,Wunderground v.1.15,2013-01-06 04:27:00,
2013-01-05 22:32:00,26.9,23.5,29.85,NW,315,3.0,-999.0,87,0.00,,,0.00,Wunderground v.1.15,2013-01-06 04:32:00,
2013-01-05 22:37:00,27.0,23.6,29.85,NW,315,3.0,-999.0,87,0.00,,,0.00,Wunderground v.1.15,2013-01-06 04:37:00,
2013-01-05 22:42:00,27.0,23.6,29.85,NW,315,3.0,-999.0,87,0.00,,,0.00,Wunderground v.1.15,2013-01-06 04:42:00,
2013-01-05 22:47:00,27.1,23.7,29.85,NW,315,3.0,-999.0,87,0.00,,,0.00,Wunderground v.1.15,2013-01-06 04:47:00,
2013-01-05 22:52:00,27.1,23.7,29.85,NW,315,3.0,-999.0,87,0.00,,,0.00,Wunderground v.1.15,2013-01-06 04:52:00,
2013-01-05 22:57:00,27.0,23.6,29.86,NW,315,2.0,-999.0,87,0.00,,,0.00,Wunderground v.1.15,2013-01-06 04:57:00,
2013-01-05 23:02:00,27.0,23.6,29.86,NW,315,2.0,-999.0,87,0.00,,,0.00,Wunderground v.1.15,2013-01-06 05:02:00,
2013-01-05 23:07:00,26.9,23.3,29.86,NW,315,3.0,-999.0,86,0.00,,,0.00,Wunderground v.1.15,2013-01-06 05:07:00,
2013-01-05 23:12:00,26.9,23.3,29.86,NW,315,3.0,-999.0,86,0.00,,,0.00,Wunderground v.1.15,2013-01-06 05:12:00,
2013-01-05 23:17:00,26.5,22.9,29.85,NW,315,1.0,-999.0,86,0.00,,,0.00,Wunderground v.1.15,2013-01-06 05:17:00,
2013-01-05 23:22:00,26.5,22.9,29.85,NW,315,1.0,-999.0,86,0.00,,,0.00,Wunderground v.1.15,2013-01-06 05:22:00,
2013-01-05 23:27:00,26.4,23.1,29.86,WNW,293,2.0,-999.0,87,0.00,,,0.00,Wunderground v.1.15,2013-01-06 05:27:00,
2013-01-05 23:32:00,26.4,23.1,29.86,WNW,293,2.0,-999.0,87,0.00,,,0.00,Wunderground v.1.15,2013-01-06 05:32:00,
2013-01-05 23:37:00,26.3,23.0,29.85,West,270,1.0,-999.0,87,0.00,,,0.00,Wunderground v.1.15,2013-01-06 05:37:00,
2013-01-05 23:42:00,26.3,23.0,29.85,West,270,1.0,-999.0,87,0.00,,,0.00,Wunderground v.1.15,2013-01-06 05:42:00,
2013-01-05 23:47:00,26.1,22.8,29.85,West,270,1.0,-999.0,87,0.00,,,0.00,Wunderground v.1.15,2013-01-06 05:47:00,
2013-01-05 23:52:00,26.1,22.8,29.85,West,270,1.0,-999.0,87,0.00,,,0.00,Wunderground v.1.15,2013-01-06 05:52:00,
2013-01-05 23:57:00,25.8,22.5,29.85,West,270,1.0,-999.0,87,0.00,,,0.00,Wunderground v.1.15,2013-01-06 05:57:00,